Hourly Data Report for October 24, 2013

All times are specified in Local Standard Time (LST). Add 1 hour to adjust for Daylight Saving Time where and when it is observed.

TORONTO INTL A
ONTARIO

43°40'36.000" N
79°37'50.000" W
173.40 m
6158731
71624
YYZ

Download Data

Hourly Data (October 2013)
Hourly Data Report for October 24, 2013
Temp Definition
°C
Dew Point Temp Definition
°C
Rel Hum Definition
%
Wind Dir Definition
10's deg

Wind Spd Definition
km/h
Visibility Definition
km
Stn Press Definition
kPa
Hmdx Definition


Wind Chill Definition


Weather Definition


TIME
00:00 Legend Double Dagger 1.4 -0.9 85 26 14 24.1 98.83     LegendNANA
01:00 Legend Double Dagger 1.5 -0.4 87 25 16 24.1 98.82     Mainly Clear
02:00 Legend Double Dagger 1.0 -0.6 89 25 15 24.1 98.83     LegendNANA
03:00 Legend Double Dagger 0.6 -1.0 89 25 13 24.1 98.78     LegendNANA
04:00 Legend Double Dagger 0.8 -1.0 88 29 9 24.1 98.82     Clear
05:00 Legend Double Dagger 1.1 -0.8 87 27 17 24.1 98.85     LegendNANA
06:00 Legend Double Dagger 0.9 -0.7 89 25 17 24.1 98.86     LegendNANA
07:00 Legend Double Dagger 1.9 -0.2 86 25 20 24.1 98.87     Mostly Cloudy
08:00 Legend Double Dagger 3.7 0.6 80 26 20 24.1 98.93     LegendNANA
09:00 Legend Double Dagger 4.7 0.5 74 27 29 24.1 98.97     LegendNANA
10:00 Legend Double Dagger 6.2 1.0 69 27 28 24.1 98.98     Mostly Cloudy
11:00 Legend Double Dagger 7.0 0.9 65 28 38 24.1 98.98     LegendNANA
12:00 Legend Double Dagger 8.3 2.4 66 28 35 24.1 98.98     LegendNANA
13:00 Legend Double Dagger 8.0 1.4 63 27 33 24.1 98.98     Mostly Cloudy
14:00 Legend Double Dagger 7.6 1.0 63 28 25 24.1 99.02     LegendNANA
15:00 Legend Double Dagger 8.1 -0.9 53 28 31 24.1 99.10     LegendNANA
16:00 Legend Double Dagger 7.6 -0.4 57 29 27 24.1 99.19     Mostly Cloudy
17:00 Legend Double Dagger 6.8 -0.4 60 30 26 24.1 99.27     LegendNANA
18:00 Legend Double Dagger 6.4 0.3 65 30 18 24.1 99.35     LegendNANA
19:00 Legend Double Dagger 5.3 1.4 76 28 18 24.1 99.43     Cloudy
20:00 Legend Double Dagger 4.6 1.6 81 27 16 24.1 99.48     LegendNANA
21:00 Legend Double Dagger 3.8 1.5 85 26 14 24.1 99.51     LegendNANA
22:00 Legend Double Dagger 3.3 1.2 86 27 15 24.1 99.57     Cloudy
23:00 Legend Double Dagger 3.5 1.2 85 30 14 24.1 99.63     LegendNANA

Notes on Data Quality.

Legend

  • E = Estimated
  • M = Missing
  • NA = Not Available
  • ‡ = Partner data that is not subject to review by the National Climate Archives
Date modified: